FDX764 KMEM-KRIC

Flight info

Callsign FDX764
Flight time 1h 28m
Altitude 35000
Route GOETZ7 DIYAB DCT TROVE Q66 ALEAN DCT LYH POWTN5
Aircraft MD11/H-SDE1E2E3FGHIJ2J3J4J5M1RWXY/LB1D1

Departure

Time 2026-05-05 22:09
Airport Memphis International Airport (KMEM)

Arrival

Time 2026-05-05 23:38
Airport Richmond International Airport (KRIC)
Time Latitude Longitude Altitude Speed Heading
2026-05-05 21:31 35.06164 -89.98176 273 ft 0 kts 90°
2026-05-05 21:51 35.06164 -89.98191 272 ft 4 kts 90°
2026-05-05 21:51 35.06164 -89.98224 272 ft 4 kts 91°
2026-05-05 21:51 35.06164 -89.98257 272 ft 4 kts 91°
2026-05-05 21:51 35.06165 -89.98273 271 ft 1 kts 91°
2026-05-05 21:52 35.06165 -89.98274 271 ft 0 kts 91°
2026-05-05 21:58 35.06164 -89.98272 271 ft 1 kts 93°
2026-05-05 21:58 35.06158 -89.98257 272 ft 3 kts 118°
2026-05-05 21:58 35.06143 -89.98245 273 ft 3 kts 154°
2026-05-05 21:59 35.06111 -89.98246 272 ft 6 kts 191°
2026-05-05 21:59 35.06056 -89.98270 272 ft 10 kts 208°
2026-05-05 21:59 35.06024 -89.98354 272 ft 13 kts 267°
2026-05-05 21:59 35.06017 -89.98479 270 ft 10 kts 247°
2026-05-05 22:00 35.05974 -89.98512 269 ft 9 kts 194°
2026-05-05 22:00 35.05894 -89.98509 268 ft 14 kts 176°
2026-05-05 22:00 35.05799 -89.98508 266 ft 16 kts 180°
2026-05-05 22:00 35.05674 -89.98507 267 ft 23 kts 180°
2026-05-05 22:01 35.05345 -89.98509 294 ft 63 kts 182°
2026-05-05 22:01 35.05169 -89.98514 305 ft 73 kts 181°
2026-05-05 22:01 35.04957 -89.98519 309 ft 99 kts 181°
2026-05-05 22:01 35.04456 -89.98522 310 ft 36 kts 176°
2026-05-05 22:02 35.04389 -89.98516 309 ft 0 kts 176°
2026-05-05 22:02 35.04385 -89.98515 309 ft 2 kts 172°
2026-05-05 22:03 35.04377 -89.98512 311 ft 1 kts 161°
2026-05-05 22:03 35.04355 -89.98505 312 ft 5 kts 166°
2026-05-05 22:03 35.04307 -89.98498 311 ft 9 kts 177°
2026-05-05 22:03 35.04233 -89.98502 311 ft 12 kts 190°
2026-05-05 22:04 35.04200 -89.98537 313 ft 1 kts 255°
2026-05-05 22:04 35.04205 -89.98565 312 ft 5 kts 293°
2026-05-05 22:04 35.04247 -89.98594 310 ft 10 kts 349°
2026-05-05 22:04 35.04337 -89.98598 309 ft 16 kts 359°
2026-05-05 22:05 35.04460 -89.98602 312 ft 20 kts 358°
2026-05-05 22:05 35.04610 -89.98603 312 ft 24 kts
2026-05-05 22:05 35.04771 -89.98602 311 ft 17 kts 360°
2026-05-05 22:05 35.04880 -89.98605 312 ft 12 kts 353°
2026-05-05 22:06 35.04910 -89.98620 312 ft 0 kts 326°
2026-05-05 22:06 35.04916 -89.98625 312 ft 2 kts 323°
2026-05-05 22:07 35.04925 -89.98638 312 ft 2 kts 306°
2026-05-05 22:07 35.04931 -89.98660 311 ft 3 kts 285°
2026-05-05 22:07 35.04932 -89.98691 311 ft 4 kts 267°
2026-05-05 22:07 35.04921 -89.98727 312 ft 2 kts 235°
2026-05-05 22:08 35.04907 -89.98737 311 ft 3 kts 205°
2026-05-05 22:08 35.04886 -89.98741 311 ft 4 kts 186°
2026-05-05 22:08 35.04875 -89.98741 311 ft 0 kts 179°
2026-05-05 22:08 35.04865 -89.98740 314 ft 2 kts 179°
2026-05-05 22:09 35.04811 -89.98739 311 ft 20 kts 179°
2026-05-05 22:09 35.04373 -89.98730 308 ft 108 kts 179°
2026-05-05 22:09 35.03360 -89.98708 367 ft 172 kts 179°
2026-05-05 22:09 35.02111 -89.98684 1038 ft 185 kts 178°
2026-05-05 22:10 35.00901 -89.98614 2372 ft 161 kts 179°
2026-05-05 22:10 34.99801 -89.98421 3403 ft 170 kts 174°
2026-05-05 22:10 34.98507 -89.97983 3660 ft 213 kts 170°
2026-05-05 22:10 34.97082 -89.97259 4350 ft 212 kts 159°
2026-05-05 22:11 34.95804 -89.96382 5227 ft 223 kts 160°
2026-05-05 22:11 34.94431 -89.95313 4975 ft 241 kts 146°
2026-05-05 22:11 34.93367 -89.93643 4993 ft 258 kts 122°
2026-05-05 22:11 34.92907 -89.91474 5003 ft 269 kts 103°
2026-05-05 22:12 34.92744 -89.89152 5005 ft 285 kts 99°
2026-05-05 22:12 34.92633 -89.86727 4993 ft 293 kts 98°
2026-05-05 22:12 34.92773 -89.84209 5085 ft 307 kts 75°
2026-05-05 22:12 34.93612 -89.81860 5991 ft 306 kts 64°
2026-05-05 22:13 34.94660 -89.79547 6672 ft 313 kts 61°
2026-05-05 22:13 34.95740 -89.77303 7629 ft 315 kts 59°
2026-05-05 22:13 34.96872 -89.74966 8658 ft 319 kts 59°
2026-05-05 22:13 34.97998 -89.72611 9610 ft 324 kts 59°
2026-05-05 22:14 34.99145 -89.70190 10299 ft 339 kts 59°
2026-05-05 22:14 35.00388 -89.67560 10421 ft 373 kts 59°
2026-05-05 22:14 35.01732 -89.64705 10683 ft 399 kts 59°
2026-05-05 22:14 35.03121 -89.61739 11560 ft 405 kts 59°
2026-05-05 22:15 35.04506 -89.58776 12428 ft 410 kts 59°
2026-05-05 22:15 35.05930 -89.55727 13294 ft 415 kts 58°
2026-05-05 22:15 35.07366 -89.52651 14097 ft 419 kts 58°
2026-05-05 22:15 35.08816 -89.49540 14833 ft 424 kts 58°
2026-05-05 22:16 35.10288 -89.46380 15565 ft 428 kts 58°
2026-05-05 22:16 35.11762 -89.43214 16269 ft 433 kts 57°
2026-05-05 22:16 35.13243 -89.40030 16973 ft 437 kts 57°
2026-05-05 22:16 35.14756 -89.36775 17670 ft 441 kts 57°
2026-05-05 22:17 35.16284 -89.33484 18308 ft 446 kts 57°
2026-05-05 22:17 35.17810 -89.30196 18859 ft 450 kts 57°
2026-05-05 22:17 35.19357 -89.26856 19431 ft 454 kts 57°
2026-05-05 22:17 35.20897 -89.23511 19952 ft 458 kts 58°
2026-05-05 22:18 35.22243 -89.19917 20480 ft 465 kts 66°
2026-05-05 22:18 35.23333 -89.16158 21001 ft 470 kts 70°
2026-05-05 22:18 35.24308 -89.12321 21577 ft 474 kts 70°
2026-05-05 22:18 35.25398 -89.08520 22097 ft 476 kts 63°
2026-05-05 22:19 35.26992 -89.04960 22670 ft 473 kts 50°
2026-05-05 22:19 35.29065 -89.01914 23213 ft 471 kts 41°
2026-05-05 22:19 35.31415 -88.99113 23752 ft 472 kts 37°
2026-05-05 22:19 35.33859 -88.96405 24272 ft 475 kts 36°
2026-05-05 22:20 35.36312 -88.93674 24778 ft 480 kts 38°
2026-05-05 22:20 35.38553 -88.90569 25300 ft 492 kts 50°
2026-05-05 22:20 35.40234 -88.86869 25846 ft 504 kts 63°
2026-05-05 22:20 35.41346 -88.82749 26323 ft 513 kts 72°
2026-05-05 22:21 35.42147 -88.78438 26815 ft 519 kts 75°
2026-05-05 22:21 35.42856 -88.74082 27311 ft 523 kts 76°
2026-05-05 22:21 35.43589 -88.69694 27820 ft 527 kts 75°
2026-05-05 22:21 35.44371 -88.65357 28316 ft 530 kts 73°
2026-05-05 22:22 35.45222 -88.60933 28807 ft 534 kts 72°
2026-05-05 22:22 35.46112 -88.56499 29298 ft 537 kts 72°
2026-05-05 22:22 35.47024 -88.52039 29786 ft 540 kts 72°
2026-05-05 22:22 35.47948 -88.47545 30177 ft 544 kts 72°
2026-05-05 22:23 35.48872 -88.43033 30608 ft 545 kts 72°
2026-05-05 22:23 35.49793 -88.38504 31074 ft 546 kts 71°
2026-05-05 22:23 35.50401 -88.35502 31399 ft 546 kts 71°
2026-05-05 22:23 35.51315 -88.30971 31839 ft 546 kts 71°
2026-05-05 22:24 35.52522 -88.24968 32405 ft 547 kts 71°
2026-05-05 22:24 35.53433 -88.20428 32833 ft 548 kts 71°
2026-05-05 22:24 35.54038 -88.17407 33127 ft 548 kts 71°
2026-05-05 22:24 35.54959 -88.12802 33529 ft 549 kts 70°
2026-05-05 22:25 35.55865 -88.08263 33919 ft 549 kts 70°
2026-05-05 22:25 35.56766 -88.03738 34265 ft 549 kts 70°
2026-05-05 22:25 35.57672 -87.99176 34625 ft 549 kts 70°
2026-05-05 22:25 35.58572 -87.94640 34809 ft 549 kts 70°
2026-05-05 22:26 35.59477 -87.90062 34856 ft 549 kts 70°
2026-05-05 22:26 35.61256 -87.80913 34876 ft 549 kts 71°
2026-05-05 22:27 35.63021 -87.71811 34877 ft 548 kts 71°
2026-05-05 22:27 35.64789 -87.62750 34877 ft 547 kts 71°
2026-05-05 22:28 35.66561 -87.53653 34876 ft 545 kts 71°
2026-05-05 22:28 35.68314 -87.44621 34880 ft 544 kts 71°
2026-05-05 22:29 35.70065 -87.35552 34880 ft 544 kts 71°
2026-05-05 22:29 35.71807 -87.26484 34885 ft 543 kts 71°
2026-05-05 22:30 35.73540 -87.17425 34883 ft 543 kts 71°
2026-05-05 22:30 35.75257 -87.08422 34888 ft 543 kts 72°
2026-05-05 22:31 35.76973 -86.99375 34883 ft 542 kts 72°
2026-05-05 22:31 35.78683 -86.90324 34893 ft 542 kts 72°
2026-05-05 22:32 35.80359 -86.81269 34886 ft 541 kts 72°
2026-05-05 22:32 35.82021 -86.72283 34900 ft 540 kts 72°
2026-05-05 22:33 35.83700 -86.63246 34898 ft 539 kts 72°
2026-05-05 22:33 35.85361 -86.54299 34907 ft 538 kts 72°
2026-05-05 22:34 35.87030 -86.45267 34909 ft 538 kts 72°
2026-05-05 22:34 35.88684 -86.36277 34911 ft 537 kts 73°
2026-05-05 22:35 35.90324 -86.27317 34908 ft 536 kts 73°
2026-05-05 22:35 35.91952 -86.18387 34913 ft 534 kts 73°
2026-05-05 22:36 35.93575 -86.09435 34899 ft 534 kts 73°
2026-05-05 22:36 35.95193 -86.00483 34916 ft 533 kts 73°
2026-05-05 22:37 35.96790 -85.91607 34913 ft 532 kts 73°
2026-05-05 22:37 35.98363 -85.82657 34918 ft 532 kts 74°
2026-05-05 22:38 35.99913 -85.73722 34913 ft 531 kts 74°
2026-05-05 22:38 36.01458 -85.64868 34921 ft 530 kts 74°
2026-05-05 22:39 36.03010 -85.55972 34916 ft 529 kts 74°
2026-05-05 22:39 36.04556 -85.47080 34922 ft 529 kts 74°
2026-05-05 22:40 36.06093 -85.38193 34915 ft 529 kts 74°
2026-05-05 22:40 36.07654 -85.29302 34915 ft 528 kts 73°
2026-05-05 22:41 36.09342 -85.20470 34945 ft 527 kts 72°
2026-05-05 22:41 36.11071 -85.11676 34950 ft 526 kts 73°
2026-05-05 22:42 36.12783 -85.02919 34943 ft 526 kts 73°
2026-05-05 22:42 36.14487 -84.94123 34929 ft 526 kts 73°
2026-05-05 22:43 36.16172 -84.85365 34920 ft 525 kts 73°
2026-05-05 22:43 36.17864 -84.76541 34927 ft 525 kts 73°
2026-05-05 22:44 36.19544 -84.67743 34927 ft 525 kts 73°
2026-05-05 22:44 36.21208 -84.58993 34922 ft 524 kts 73°
2026-05-05 22:45 36.22873 -84.50196 34920 ft 524 kts 73°
2026-05-05 22:45 36.24534 -84.41386 34921 ft 524 kts 73°
2026-05-05 22:46 36.26187 -84.32582 34914 ft 524 kts 74°
2026-05-05 22:46 36.27787 -84.23830 34912 ft 524 kts 74°
2026-05-05 22:47 36.29407 -84.15023 34909 ft 524 kts 74°
2026-05-05 22:47 36.31044 -84.06194 34909 ft 524 kts 74°
2026-05-05 22:48 36.32662 -83.97439 34909 ft 524 kts 74°
2026-05-05 22:48 36.34281 -83.88612 34916 ft 524 kts 74°
2026-05-05 22:49 36.35894 -83.79786 34916 ft 524 kts 74°
2026-05-05 22:49 36.37502 -83.70950 34924 ft 524 kts 74°
2026-05-05 22:50 36.39091 -83.62183 34926 ft 524 kts 74°
2026-05-05 22:50 36.40683 -83.53349 34935 ft 523 kts 75°
2026-05-05 22:51 36.42271 -83.44508 34935 ft 523 kts 75°
2026-05-05 22:51 36.43840 -83.35729 34932 ft 523 kts 75°
2026-05-05 22:52 36.45391 -83.26925 34931 ft 523 kts 75°
2026-05-05 22:52 36.46932 -83.18059 34917 ft 523 kts 75°
2026-05-05 22:53 36.48462 -83.09267 34911 ft 522 kts 75°
2026-05-05 22:53 36.50002 -83.00426 34920 ft 522 kts 75°
2026-05-05 22:54 36.51537 -82.91593 34925 ft 522 kts 75°
2026-05-05 22:54 36.53054 -82.82820 34914 ft 522 kts 75°
2026-05-05 22:55 36.54572 -82.73993 34929 ft 521 kts 75°
2026-05-05 22:55 36.56084 -82.65162 34935 ft 521 kts 75°
2026-05-05 22:56 36.57577 -82.56398 34936 ft 521 kts 75°
2026-05-05 22:56 36.59077 -82.47562 34956 ft 520 kts 76°
2026-05-05 22:57 36.60565 -82.38745 34946 ft 520 kts 76°
2026-05-05 22:57 36.62047 -82.29932 34950 ft 520 kts 76°
2026-05-05 22:58 36.63513 -82.21157 34968 ft 520 kts 76°
2026-05-05 22:58 36.64957 -82.12356 34984 ft 519 kts 76°
2026-05-05 22:59 36.66396 -82.03507 34979 ft 519 kts 76°
2026-05-05 22:59 36.67836 -81.94732 34982 ft 519 kts 76°
2026-05-05 23:00 36.70006 -81.81492 34964 ft 519 kts 76°
2026-05-05 23:00 36.71443 -81.72674 34954 ft 519 kts 76°
2026-05-05 23:01 36.73012 -81.63970 34956 ft 517 kts 72°
2026-05-05 23:01 36.74964 -81.55339 34984 ft 516 kts 71°
2026-05-05 23:02 36.76984 -81.46750 35012 ft 516 kts 71°
2026-05-05 23:02 36.78967 -81.38163 35033 ft 516 kts 71°
2026-05-05 23:03 36.80926 -81.29553 35032 ft 516 kts 72°
2026-05-05 23:03 36.82877 -81.20930 35027 ft 515 kts 72°
2026-05-05 23:04 36.84820 -81.12312 35012 ft 515 kts 72°
2026-05-05 23:04 36.86768 -81.03684 34998 ft 515 kts 72°
2026-05-05 23:05 36.88684 -80.95112 35005 ft 515 kts 72°
2026-05-05 23:05 36.90606 -80.86488 35007 ft 515 kts 72°
2026-05-05 23:06 36.92523 -80.77860 35001 ft 515 kts 72°
2026-05-05 23:06 36.94433 -80.69235 34978 ft 515 kts 72°
2026-05-05 23:07 36.96317 -80.60568 34981 ft 515 kts 72°
2026-05-05 23:07 36.98186 -80.51963 34979 ft 515 kts 72°
2026-05-05 23:08 37.00076 -80.43314 34994 ft 515 kts 72°
2026-05-05 23:08 37.01964 -80.34663 34994 ft 515 kts 72°
2026-05-05 23:09 37.03847 -80.26003 34993 ft 515 kts 72°
2026-05-05 23:09 37.05713 -80.17384 34987 ft 515 kts 72°
2026-05-05 23:10 37.07582 -80.08712 34961 ft 515 kts 72°
2026-05-05 23:10 37.09440 -80.00065 34967 ft 515 kts 72°
2026-05-05 23:11 37.11293 -79.91410 34958 ft 515 kts 72°
2026-05-05 23:11 37.13144 -79.82722 34966 ft 515 kts 72°
2026-05-05 23:12 37.14974 -79.74092 34890 ft 511 kts 72°
2026-05-05 23:12 37.15875 -79.69826 34642 ft 503 kts 72°
2026-05-05 23:12 37.16766 -79.65564 34240 ft 504 kts 72°
2026-05-05 23:13 37.17352 -79.62738 33861 ft 504 kts 72°
2026-05-05 23:13 37.18235 -79.58477 33221 ft 503 kts 72°
2026-05-05 23:13 37.19404 -79.52851 32447 ft 502 kts 72°
2026-05-05 23:13 37.19991 -79.50037 32064 ft 501 kts 72°
2026-05-05 23:14 37.20872 -79.45816 31519 ft 499 kts 72°
2026-05-05 23:14 37.21751 -79.41604 30970 ft 498 kts 72°
2026-05-05 23:14 37.22630 -79.37394 30415 ft 496 kts 72°
2026-05-05 23:14 37.23496 -79.33230 29271 ft 494 kts 72°
2026-05-05 23:15 37.24368 -79.29042 27958 ft 496 kts 72°
2026-05-05 23:15 37.25230 -79.24878 26982 ft 490 kts 73°
2026-05-05 23:15 37.26065 -79.20743 26013 ft 485 kts 73°
2026-05-05 23:15 37.26874 -79.16675 25093 ft 479 kts 73°
2026-05-05 23:16 37.27673 -79.12638 24186 ft 474 kts 74°
2026-05-05 23:16 37.28463 -79.08643 23259 ft 469 kts 74°
2026-05-05 23:16 37.29246 -79.04680 22261 ft 465 kts 74°
2026-05-05 23:16 37.30014 -79.00801 21304 ft 460 kts 74°
2026-05-05 23:17 37.30780 -78.96922 20465 ft 454 kts 74°
2026-05-05 23:17 37.31537 -78.93099 19716 ft 449 kts 74°
2026-05-05 23:17 37.32288 -78.89311 19025 ft 444 kts 74°
2026-05-05 23:17 37.33032 -78.85562 18363 ft 440 kts 74°
2026-05-05 23:18 37.33771 -78.81841 17673 ft 435 kts 74°
2026-05-05 23:18 37.34500 -78.78157 16995 ft 432 kts 74°
2026-05-05 23:18 37.35207 -78.74566 16369 ft 428 kts 73°
2026-05-05 23:18 37.35921 -78.70928 15747 ft 425 kts 73°
2026-05-05 23:19 37.36631 -78.67340 15069 ft 421 kts 76°
2026-05-05 23:19 37.37338 -78.63773 14509 ft 419 kts 77°
2026-05-05 23:19 37.38033 -78.60222 13926 ft 416 kts 77°
2026-05-05 23:19 37.38719 -78.56705 13294 ft 413 kts 77°
2026-05-05 23:20 37.39398 -78.53217 12679 ft 409 kts 77°
2026-05-05 23:20 37.40071 -78.49762 12190 ft 403 kts 77°
2026-05-05 23:20 37.40734 -78.46351 11807 ft 403 kts 77°
2026-05-05 23:20 37.41396 -78.42946 11444 ft 401 kts 77°
2026-05-05 23:21 37.42055 -78.39543 11121 ft 398 kts 77°
2026-05-05 23:21 37.42711 -78.36136 11040 ft 398 kts 77°
2026-05-05 23:21 37.43357 -78.32784 10561 ft 393 kts 77°
2026-05-05 23:21 37.44033 -78.29493 9829 ft 392 kts 76°
2026-05-05 23:22 37.44760 -78.26258 9685 ft 372 kts 75°
2026-05-05 23:22 37.45473 -78.23195 9550 ft 354 kts 75°
2026-05-05 23:22 37.46160 -78.20288 9406 ft 339 kts 75°
2026-05-05 23:22 37.46824 -78.17500 9282 ft 324 kts 75°
2026-05-05 23:23 37.47467 -78.14832 9136 ft 312 kts 75°
2026-05-05 23:23 37.48091 -78.12273 9013 ft 300 kts 75°
2026-05-05 23:23 37.48697 -78.09804 8879 ft 289 kts 75°
2026-05-05 23:23 37.49280 -78.07466 8746 ft 279 kts 75°
2026-05-05 23:24 37.49857 -78.05171 8553 ft 271 kts 75°
2026-05-05 23:24 37.50423 -78.02932 8156 ft 266 kts 75°
2026-05-05 23:24 37.50995 -78.00728 7640 ft 263 kts 75°
2026-05-05 23:24 37.51572 -77.98550 7142 ft 260 kts 75°
2026-05-05 23:25 37.52145 -77.96428 6863 ft 247 kts 75°
2026-05-05 23:25 37.52704 -77.94447 6640 ft 233 kts 75°
2026-05-05 23:25 37.53242 -77.92608 6482 ft 213 kts 75°
2026-05-05 23:25 37.53751 -77.90905 6166 ft 205 kts 74°
2026-05-05 23:26 37.54259 -77.89232 5813 ft 203 kts 75°
2026-05-05 23:26 37.54766 -77.87562 5453 ft 205 kts 75°
2026-05-05 23:26 37.55262 -77.85910 5100 ft 203 kts 75°
2026-05-05 23:26 37.55765 -77.84262 5000 ft 201 kts 75°
2026-05-05 23:27 37.56273 -77.82608 4996 ft 203 kts 75°
2026-05-05 23:27 37.56782 -77.80948 5022 ft 203 kts 75°
2026-05-05 23:27 37.57288 -77.79282 5015 ft 203 kts 75°
2026-05-05 23:27 37.57794 -77.77616 5003 ft 203 kts 75°
2026-05-05 23:28 37.58298 -77.75975 5021 ft 203 kts 75°
2026-05-05 23:28 37.58810 -77.74307 5016 ft 203 kts 75°
2026-05-05 23:28 37.59318 -77.72648 5021 ft 203 kts 75°
2026-05-05 23:28 37.59829 -77.70983 5019 ft 202 kts 75°
2026-05-05 23:29 37.60342 -77.69329 4982 ft 202 kts 75°
2026-05-05 23:29 37.60851 -77.67679 5027 ft 202 kts 74°
2026-05-05 23:29 37.61340 -77.66076 4985 ft 197 kts 75°
2026-05-05 23:29 37.61830 -77.64450 5022 ft 196 kts 75°
2026-05-05 23:30 37.62315 -77.62852 4845 ft 194 kts 75°
2026-05-05 23:30 37.62817 -77.61266 4430 ft 191 kts 75°
2026-05-05 23:30 37.63300 -77.59767 4004 ft 190 kts 73°
2026-05-05 23:30 37.63806 -77.58167 3644 ft 192 kts 75°
2026-05-05 23:31 37.64292 -77.56602 3269 ft 191 kts 75°
2026-05-05 23:31 37.64786 -77.55054 2869 ft 189 kts 75°
2026-05-05 23:31 37.65279 -77.53541 2488 ft 189 kts 75°
2026-05-05 23:31 37.65779 -77.52017 2143 ft 188 kts 74°
2026-05-05 23:32 37.66264 -77.50496 1997 ft 186 kts 75°
2026-05-05 23:32 37.66763 -77.48980 2038 ft 187 kts 75°
2026-05-05 23:32 37.67259 -77.47481 1990 ft 186 kts 74°
2026-05-05 23:32 37.67749 -77.45963 2027 ft 186 kts 77°
2026-05-05 23:33 37.67810 -77.44433 1862 ft 164 kts 121°
2026-05-05 23:33 37.67124 -77.43463 2033 ft 143 kts 165°
2026-05-05 23:33 37.66174 -77.43072 2130 ft 146 kts 169°
2026-05-05 23:33 37.65214 -77.42700 1991 ft 143 kts 169°
2026-05-05 23:34 37.64262 -77.42327 2044 ft 145 kts 166°
2026-05-05 23:34 37.63362 -77.41743 1971 ft 145 kts 158°
2026-05-05 23:34 37.62475 -77.41110 2047 ft 147 kts 158°
2026-05-05 23:34 37.61596 -77.40463 1978 ft 147 kts 153°
2026-05-05 23:35 37.60784 -77.39637 2030 ft 151 kts 149°
2026-05-05 23:35 37.59980 -77.38797 1986 ft 152 kts 149°
2026-05-05 23:35 37.59150 -77.37973 2011 ft 152 kts 151°
2026-05-05 23:35 37.58302 -77.37181 2002 ft 151 kts 155°
2026-05-05 23:36 37.57425 -77.36500 1894 ft 146 kts 159°
2026-05-05 23:36 37.56539 -77.35871 1779 ft 145 kts 159°
2026-05-05 23:36 37.55652 -77.35273 1602 ft 145 kts 161°
2026-05-05 23:36 37.54733 -77.34761 1232 ft 145 kts 160°
2026-05-05 23:37 37.53865 -77.34105 933 ft 149 kts 152°
2026-05-05 23:37 37.53006 -77.33394 657 ft 146 kts 154°
2026-05-05 23:37 37.52149 -77.32725 353 ft 147 kts 152°
2026-05-05 23:37 37.51279 -77.32032 199 ft 142 kts 154°
2026-05-05 23:38 37.50648 -77.31545 191 ft 56 kts 147°
2026-05-05 23:38 37.50469 -77.31402 192 ft 30 kts 147°
2026-05-05 23:38 37.50282 -77.31293 183 ft 9 kts 197°
2026-05-05 23:38 37.50247 -77.31353 183 ft 14 kts 242°
2026-05-05 23:39 37.50176 -77.31525 183 ft 30 kts 238°
2026-05-05 23:39 37.50065 -77.31741 183 ft 31 kts 236°
2026-05-05 23:39 37.49935 -77.31985 183 ft 38 kts 236°
2026-05-05 23:39 37.49801 -77.32241 183 ft 25 kts 237°
2026-05-05 23:40 37.49700 -77.32436 183 ft 27 kts 238°
2026-05-05 23:40 37.49680 -77.32587 183 ft 16 kts 299°
2026-05-05 23:40 37.49756 -77.32714 183 ft 21 kts 308°
2026-05-05 23:40 37.49825 -77.32817 183 ft 7 kts 310°
2026-05-05 23:41 37.49871 -77.32885 182 ft 14 kts 310°
2026-05-05 23:41 37.49912 -77.33019 181 ft 19 kts 283°
2026-05-05 23:41 37.49945 -77.33071 182 ft 2 kts 339°
2026-05-05 23:41 37.49964 -77.33073 183 ft 5 kts 355°
2026-05-05 23:42 37.50002 -77.33069 183 ft 6 kts 10°
2026-05-05 23:42 37.50062 -77.33057 183 ft 4 kts
2026-05-05 23:42 37.50081 -77.33070 183 ft 4 kts 332°
2026-05-05 23:42 37.50096 -77.33083 183 ft 4 kts 324°
2026-05-05 23:43 37.50127 -77.33106 183 ft 5 kts 336°
2026-05-05 23:43 37.50163 -77.33116 183 ft 6 kts 354°
2026-05-05 23:43 37.50208 -77.33106 183 ft 7 kts 12°
2026-05-05 23:43 37.50259 -77.33094 183 ft 7 kts
2026-05-05 23:44 37.50296 -77.33119 183 ft 5 kts 304°
2026-05-05 23:44 37.50307 -77.33150 183 ft 0 kts 287°
2026-05-05 23:44 37.50307 -77.33151 183 ft 0 kts 287°
2026-05-05 23:46 37.50307 -77.33152 183 ft 0 kts 285°
2026-05-05 23:46 37.50307 -77.33155 183 ft 1 kts 282°
2026-05-05 23:46 37.50309 -77.33165 183 ft 2 kts 281°
2026-05-05 23:46 37.50312 -77.33183 183 ft 3 kts 281°
2026-05-05 23:47 37.50316 -77.33209 183 ft 4 kts 281°
2026-05-05 23:47 37.50322 -77.33244 183 ft 5 kts 281°
2026-05-05 23:47 37.50329 -77.33287 183 ft 5 kts 283°
2026-05-05 23:47 37.50340 -77.33335 183 ft 6 kts 287°
2026-05-05 23:48 37.50354 -77.33390 183 ft 5 kts 287°
2026-05-05 23:48 37.50357 -77.33425 183 ft 4 kts 270°
2026-05-05 23:48 37.50350 -77.33454 183 ft 3 kts 250°
2026-05-05 23:48 37.50343 -77.33477 183 ft 3 kts 247°
2026-05-05 23:49 37.50338 -77.33490 183 ft 0 kts 246°
2026-05-05 23:49 37.50337 -77.33493 183 ft 0 kts 246°